When you browse on this site, cookies collect data to enhance your experience and personalize the content and advertising you see.
Visit our Privacy Policy to learn more. By continuing to use the site, you agree to this use of cookies and data.
  • In Romania
  • List of Countries
  • For 7 days
  • Water Temperature
  • Satellite Maps
  • Weather Map
  • Weather Widgets
  • user-avatar
    Login

    Hourly Weather Atzitzintla

    Today, 16 February, Saturday

    Time Temperature Precipitation Wind Pressure Humidity
    00:00 +13°C° 0.1 mm 1 mps 562 mmHg 56%
    01:00 +13°C° 0.3 mm 1 mps 562 mmHg 56%
    02:00 +13°C° 0.3 mm 2 mps 562 mmHg 57%
    03:00 +12°C° 0.3 mm 2 mps 561 mmHg 57%
    04:00 +12°C° 0.3 mm 2 mps 561 mmHg 59%
    05:00 +12°C° 0.3 mm 2 mps 561 mmHg 61%
    06:00 +12°C° 0.3 mm 2 mps 561 mmHg 64%
    07:00 +14°C° 0.2 mm 1 mps 562 mmHg 57%
    08:00 +16°C° 0.2 mm 1 mps 564 mmHg 51%
    09:00 +20°C° 0.2 mm 1 mps 565 mmHg 45%
    10:00 +21°C° 0.1 mm 1 mps 566 mmHg 42%
    11:00 +23°C° 0.1 mm 1 mps 566 mmHg 38%
    12:00 +25°C° 0.1 mm 2 mps 567 mmHg 34%
    13:00 +25°C° 0.2 mm 2 mps 566 mmHg 34%
    14:00 +25°C° 0.2 mm 2 mps 566 mmHg 35%
    15:00 +26°C° 0.2 mm 3 mps 565 mmHg 35%
    16:00 +24°C° 0.2 mm 3 mps 564 mmHg 40%
    17:00 +22°C° 0.2 mm 3 mps 564 mmHg 44%
    18:00 +20°C° 0.2 mm 3 mps 563 mmHg 49%
    19:00 +19°C° 0.5 mm 2 mps 562 mmHg 51%
    20:00 +17°C° 0.5 mm 2 mps 562 mmHg 53%
    21:00 +15°C° 0.5 mm 2 mps 562 mmHg 55%
    22:00 +15°C° 0 mm 2 mps 561 mmHg 54%
    23:00 +15°C° 0 mm 2 mps 561 mmHg 54%

    Tomorrow, 17 February, Sunday

    Time Temperature Precipitation Wind Pressure Humidity
    00:00 +13°C° 0 mm 3 mps 561 mmHg 53%
    01:00 +14°C° 0 mm 2 mps 561 mmHg 58%
    02:00 +13°C° 0 mm 2 mps 560 mmHg 64%
    03:00 +13°C° 0 mm 2 mps 560 mmHg 69%
    04:00 +13°C° 0 mm 2 mps 560 mmHg 70%
    05:00 +12°C° 0 mm 2 mps 560 mmHg 70%
    06:00 +12°C° 0 mm 2 mps 560 mmHg 71%
    07:00 +14°C° 0 mm 2 mps 561 mmHg 63%
    08:00 +16°C° 0 mm 2 mps 563 mmHg 54%
    09:00 +18°C° 0 mm 2 mps 564 mmHg 45%
    10:00 +20°C° 0.1 mm 2 mps 565 mmHg 40%
    11:00 +23°C° 0.1 mm 2 mps 566 mmHg 34%
    12:00 +25°C° 0.1 mm 2 mps 567 mmHg 29%
    13:00 +26°C° 0.1 mm 2 mps 566 mmHg 29%
    14:00 +26°C° 0.1 mm 3 mps 566 mmHg 29%
    15:00 +26°C° 0.1 mm 3 mps 565 mmHg 30%
    16:00 +25°C° 0.4 mm 3 mps 565 mmHg 35%
    17:00 +23°C° 0.4 mm 2 mps 564 mmHg 40%
    18:00 +21°C° 0.4 mm 2 mps 563 mmHg 45%
    19:00 +19°C° 0.3 mm 2 mps 563 mmHg 49%
    20:00 +17°C° 0.3 mm 2 mps 563 mmHg 52%
    21:00 +15°C° 0.3 mm 1 mps 562 mmHg 55%
    22:00 +14°C° 0.3 mm 1 mps 562 mmHg 55%
    23:00 +14°C° 0.3 mm 1 mps 562 mmHg 55%

    Day after tomorrow, 18 February, Monday

    Time Temperature Precipitation Wind Pressure Humidity
    00:00 +14°C° 0.3 mm 1 mps 563 mmHg 56%
    01:00 +13°C° 0.2 mm 1 mps 562 mmHg 57%
    02:00 +13°C° 0.2 mm 1 mps 562 mmHg 59%
    03:00 +12°C° 0.2 mm 1 mps 561 mmHg 61%
    04:00 +12°C° 0.2 mm 1 mps 561 mmHg 61%
    05:00 +12°C° 0.2 mm 1 mps 561 mmHg 62%
    06:00 +11°C° 0.2 mm 1 mps 561 mmHg 63%
    07:00 +13°C° 0 mm 1 mps 563 mmHg 57%
    08:00 +15°C° 0 mm 0 mps 565 mmHg 52%
    09:00 +17°C° 0 mm 0 mps 566 mmHg 47%
    10:00 +21°C° 0 mm 1 mps 567 mmHg 43%
    11:00 +21°C° 0 mm 2 mps 568 mmHg 39%
    12:00 +24°C° 0 mm 3 mps 568 mmHg 35%
    13:00 +24°C° 0.5 mm 3 mps 568 mmHg 36%
    14:00 +24°C° 0.5 mm 3 mps 567 mmHg 37%
    15:00 +23°C° 0.5 mm 4 mps 566 mmHg 38%
    16:00 +22°C° 1.1 mm 3 mps 565 mmHg 46%
    17:00 +20°C° 1.1 mm 3 mps 565 mmHg 54%
    18:00 +18°C° 1.1 mm 3 mps 564 mmHg 61%
    19:00 +17°C° 1.4 mm 2 mps 563 mmHg 67%
    20:00 +15°C° 1.4 mm 1 mps 563 mmHg 72%
    21:00 +14°C° 1.4 mm 1 mps 563 mmHg 78%
    22:00 +13°C° 0.7 mm 1 mps 563 mmHg 77%
    23:00 +13°C° 0.7 mm 1 mps 563 mmHg 77%

    19 February, Tuesday

    Time Temperature Precipitation Wind Pressure Humidity
    00:00 +13°C° 0.7 mm 1 mps 563 mmHg 76%
    01:00 +12°C° 0.2 mm 2 mps 562 mmHg 74%
    02:00 +12°C° 0.2 mm 2 mps 561 mmHg 72%
    03:00 +12°C° 0.2 mm 2 mps 561 mmHg 69%
    04:00 +10°C° 0 mm 2 mps 561 mmHg 67%
    05:00 +10°C° 0 mm 2 mps 561 mmHg 65%
    06:00 +9°C° 0 mm 2 mps 560 mmHg 62%
    07:00 +13°C° 0 mm 2 mps 562 mmHg 57%
    08:00 +15°C° 0 mm 2 mps 563 mmHg 51%
    09:00 +17°C° 0 mm 2 mps 565 mmHg 46%
    10:00 +18°C° 0 mm 2 mps 565 mmHg 41%
    11:00 +20°C° 0 mm 3 mps 566 mmHg 37%
    12:00 +22°C° 0 mm 4 mps 566 mmHg 32%
    13:00 +22°C° 0 mm 4 mps 566 mmHg 31%
    14:00 +23°C° 0 mm 5 mps 565 mmHg 30%
    15:00 +23°C° 0 mm 5 mps 564 mmHg 28%
    16:00 +21°C° 0 mm 5 mps 564 mmHg 31%
    17:00 +20°C° 0 mm 4 mps 563 mmHg 35%
    18:00 +19°C° 0 mm 4 mps 562 mmHg 38%
    19:00 +17°C° 0 mm 3 mps 562 mmHg 40%
    20:00 +14°C° 0 mm 3 mps 562 mmHg 41%
    21:00 +13°C° 0 mm 2 mps 561 mmHg 43%
    22:00 +13°C° 0 mm 2 mps 561 mmHg 41%
    23:00 +12°C° 0 mm 2 mps 561 mmHg 39%

    20 February, Wednesday

    Time Temperature Precipitation Wind Pressure Humidity
    00:00 +11°C° 0 mm 3 mps 560 mmHg 37%
    01:00 +12°C° 0 mm 2 mps 560 mmHg 41%
    02:00 +10°C° 0 mm 2 mps 559 mmHg 46%
    03:00 +10°C° 0 mm 2 mps 559 mmHg 50%
    04:00 +9°C° 0 mm 2 mps 559 mmHg 52%
    05:00 +9°C° 0 mm 2 mps 559 mmHg 54%
    06:00 +9°C° 0 mm 2 mps 559 mmHg 57%
    07:00 +12°C° 0 mm 2 mps 560 mmHg 50%
    08:00 +14°C° 0 mm 2 mps 562 mmHg 43%
    09:00 +17°C° 0 mm 2 mps 563 mmHg 37%
    10:00 +18°C° 0 mm 2 mps 564 mmHg 33%
    11:00 +20°C° 0 mm 3 mps 564 mmHg 29%
    12:00 +22°C° 0 mm 3 mps 565 mmHg 25%
    13:00 +22°C° 0 mm 3 mps 565 mmHg 25%
    14:00 +22°C° 0 mm 4 mps 564 mmHg 25%
    15:00 +22°C° 0 mm 4 mps 563 mmHg 24%
    16:00 +21°C° 0 mm 3 mps 563 mmHg 29%
    17:00 +19°C° 0 mm 3 mps 562 mmHg 34%
    18:00 +18°C° 0 mm 2 mps 562 mmHg 39%
    19:00 +16°C° 0 mm 2 mps 561 mmHg 45%
    20:00 +14°C° 0 mm 1 mps 561 mmHg 51%
    21:00 +12°C° 0 mm 1 mps 560 mmHg 57%
    22:00 +12°C° 0 mm 1 mps 560 mmHg 58%
    23:00 +11°C° 0 mm 1 mps 560 mmHg 59%

    21 February, Thursday

    Time Temperature Precipitation Wind Pressure Humidity
    00:00 +11°C° 0 mm 1 mps 560 mmHg 60%
    01:00 +10°C° 0 mm 1 mps 560 mmHg 59%
    02:00 +10°C° 0 mm 1 mps 559 mmHg 57%
    03:00 +10°C° 0 mm 1 mps 559 mmHg 56%
    04:00 +9°C° 0 mm 1 mps 559 mmHg 53%
    05:00 +8°C° 0 mm 2 mps 559 mmHg 50%
    06:00 +8°C° 0 mm 2 mps 559 mmHg 47%
    07:00 +10°C° 0 mm 2 mps 561 mmHg 42%
    08:00 +14°C° 0 mm 2 mps 562 mmHg 37%
    09:00 +16°C° 0 mm 2 mps 564 mmHg 32%
    10:00 +18°C° 0 mm 3 mps 565 mmHg 30%
    11:00 +19°C° 0 mm 3 mps 565 mmHg 28%
    12:00 +21°C° 0 mm 4 mps 566 mmHg 26%
    13:00 +21°C° 0 mm 4 mps 565 mmHg 26%
    14:00 +22°C° 0 mm 5 mps 564 mmHg 26%
    15:00 +22°C° 0 mm 5 mps 564 mmHg 25%
    16:00 +21°C° 0 mm 5 mps 563 mmHg 29%
    17:00 +19°C° 0 mm 5 mps 563 mmHg 34%
    18:00 +18°C° 0 mm 4 mps 562 mmHg 38%
    19:00 +16°C° 0 mm 3 mps 562 mmHg 41%
    20:00 +13°C° 0 mm 3 mps 561 mmHg 43%
    21:00 +13°C° 0 mm 2 mps 561 mmHg 46%
    22:00 +12°C° 0 mm 2 mps 561 mmHg 46%
    23:00 +12°C° 0 mm 2 mps 561 mmHg 45%
    Show more